| time (UTC) | temp F | wind direction | speed knots | gust knots | rain 1hr in | rain 24hr in | rain mn in | humidity % | barometer mb |
| 20260509024522 | 63 | 219 | 1.7 | 2.6 | 0.00 | 0.00 | 0.00 | 54 | 997.1 |
| 20260509024508 | 63 | 223 | 1.7 | 2.6 | 0.00 | 0.00 | 0.00 | 54 | 997.1 |
| 20260509024021 | 63 | 46 | 0.9 | 1.7 | 0.00 | 0.00 | 0.00 | 53 | 997.1 |
| 20260509023532 | 63 | 201 | 0.9 | 1.7 | 0.00 | 0.00 | 0.00 | 52 | 997.1 |
| 20260509023508 | 63 | 223 | 0.9 | 1.7 | 0.00 | 0.00 | 0.00 | 52 | 997.1 |
| 20260509023010 | 64 | 223 | 0.9 | 1.7 | 0.00 | 0.00 | 0.00 | 53 | 997.2 |
| 20260509022519 | 64 | 216 | 0.9 | 1.7 | 0.00 | 0.00 | 0.00 | 51 | 997.1 |
| 20260509022008 | 64 | 223 | 0.9 | 1.7 | 0.00 | 0.00 | 0.00 | 53 | 997.1 |
| 20260509021522 | 64 | 206 | 0.9 | 2.6 | 0.00 | 0.00 | 0.00 | 52 | 997.1 |
| 20260509021508 | 64 | 190 | 0.9 | 2.6 | 0.00 | 0.00 | 0.00 | 52 | 997.1 |
| 20260509021007 | 64 | 193 | 1.7 | 2.6 | 0.00 | 0.00 | 0.00 | 52 | 997.1 |
| 20260509020508 | 64 | 216 | 0.9 | 2.6 | 0.00 | 0.00 | 0.00 | 52 | 997.0 |
| 20260509020021 | 64 | 178 | 0.9 | 2.6 | 0.00 | 0.00 | 0.00 | 52 | 997.0 |
| 20260509020009 | 64 | 178 | 1.7 | 2.6 | 0.00 | 0.00 | 0.00 | 52 | 997.0 |
| 20260509015507 | 64 | 216 | 0.9 | 2.6 | 0.00 | 0.00 | 0.00 | 53 | 997.1 |
| 20260509015009 | 64 | 197 | 1.7 | 2.6 | 0.00 | 0.00 | 0.00 | 52 | 997.1 |
| 20260509014521 | 64 | 213 | 0.9 | 2.6 | 0.00 | 0.00 | 0.00 | 51 | 997.1 |
| 20260509014509 | 64 | 223 | 0.9 | 2.6 | 0.00 | 0.00 | 0.00 | 51 | 997.1 |
| 20260509014009 | 65 | 223 | 0.9 | 2.6 | 0.00 | 0.00 | 0.00 | 51 | 997.0 |
| 20260509013508 | 65 | 216 | 0.9 | 2.6 | 0.00 | 0.00 | 0.00 | 51 | 996.9 |
| 20260509013021 | 65 | 223 | 0.9 | 1.7 | 0.00 | 0.00 | 0.00 | 50 | 997.0 |
| 20260509013008 | 65 | 223 | 1.7 | 1.7 | 0.00 | 0.00 | 0.00 | 51 | 997.0 |
| 20260509012508 | 65 | 218 | 0.9 | 1.7 | 0.00 | 0.00 | 0.00 | 49 | 996.9 |
| 20260509012007 | 65 | 213 | 0.9 | 2.6 | 0.00 | 0.00 | 0.00 | 50 | 996.9 |
| 20260509011521 | 65 | 216 | 0.9 | 1.7 | 0.00 | 0.00 | 0.00 | 49 | 996.9 |
| 20260509011509 | 65 | 206 | 0.9 | 1.7 | 0.00 | 0.00 | 0.00 | 49 | 996.9 |
| 20260509011008 | 65 | 197 | 0.9 | 1.7 | 0.00 | 0.00 | 0.00 | 49 | 997.0 |
| 20260509010519 | 65 | 234 | 0.9 | 1.7 | 0.00 | 0.00 | 0.00 | 49 | 997.0 |
| 20260509010023 | 66 | 223 | 0.9 | 2.6 | 0.00 | 0.00 | 0.00 | 49 | 997.0 |
| 20260509010020 | 66 | 213 | 0.9 | 2.6 | 0.00 | 0.00 | 0.00 | 49 | 997.0 |
| 20260509005519 | 66 | 223 | 1.7 | 3.5 | 0.00 | 0.00 | 0.00 | 49 | 997.0 |
| 20260509005011 | 66 | 237 | 1.7 | 3.5 | 0.00 | 0.00 | 0.00 | 48 | 996.8 |
| 20260509004534 | 66 | 240 | 0.9 | 4.3 | 0.00 | 0.00 | 0.00 | 48 | 996.8 |
| 20260509004508 | 66 | 231 | 0.9 | 4.3 | 0.00 | 0.00 | 0.00 | 48 | 996.8 |
| 20260509003521 | 66 | 216 | 0.9 | 2.6 | 0.00 | 0.00 | 0.00 | 48 | 996.8 |
| 20260509003509 | 66 | 240 | 0.9 | 2.6 | 0.00 | 0.00 | 0.00 | 48 | 996.8 |
| 20260509003033 | 66 | 223 | 0.9 | 3.5 | 0.00 | 0.00 | 0.00 | 47 | 996.7 |
| 20260509003008 | 66 | 231 | 0.9 | 3.5 | 0.00 | 0.00 | 0.00 | 47 | 996.7 |
| 20260509002508 | 66 | 232 | 1.7 | 2.6 | 0.00 | 0.00 | 0.00 | 48 | 996.7 |
| 20260509002008 | 66 | 223 | 1.7 | 3.5 | 0.00 | 0.00 | 0.00 | 49 | 996.7 |
| 20260509001532 | 66 | 203 | 1.7 | 3.5 | 0.00 | 0.00 | 0.00 | 49 | 996.7 |
| 20260509001507 | 66 | 195 | 0.9 | 3.5 | 0.00 | 0.00 | 0.00 | 49 | 996.7 |
| 20260509001011 | 67 | 240 | 0.9 | 2.6 | 0.00 | 0.00 | 0.00 | 49 | 996.7 |
| 20260509000521 | 67 | 237 | 0.9 | 2.6 | 0.00 | 0.00 | 0.00 | 47 | 996.8 |
| 20260509000510 | 67 | 206 | 0.9 | 2.6 | 0.00 | 0.00 | 0.00 | 47 | 996.8 |
| 20260509000024 | 67 | 218 | 1.7 | 3.5 | 0.00 | 0.00 | 0.00 | 47 | 996.8 |
| 20260509000020 | 67 | 245 | 1.7 | 3.5 | 0.00 | 0.00 | 0.00 | 47 | 996.8 |
| 20260508235507 | 67 | 215 | 1.7 | 3.5 | 0.00 | 0.00 | 0.00 | 47 | 996.8 |
| 20260508235023 | 67 | 223 | 0.9 | 3.5 | 0.00 | 0.00 | 0.00 | 47 | 996.8 |
| 20260508234521 | 67 | 223 | 1.7 | 3.5 | 0.00 | 0.00 | 0.00 | 47 | 996.8 |
| 20260508234508 | 67 | 257 | 1.7 | 3.5 | 0.00 | 0.00 | 0.00 | 47 | 996.8 |
| 20260508234007 | 67 | 216 | 1.7 | 3.5 | 0.00 | 0.00 | 0.00 | 48 | 996.8 |
| 20260508233522 | 67 | 216 | 1.7 | 3.5 | 0.00 | 0.00 | 0.00 | 45 | 996.8 |
| 20260508233518 | 67 | 223 | 1.7 | 3.5 | 0.00 | 0.00 | 0.00 | 45 | 996.8 |
| 20260508233021 | 67 | 223 | 1.7 | 2.6 | 0.00 | 0.00 | 0.00 | 46 | 996.8 |
| 20260508233009 | 67 | 219 | 1.7 | 2.6 | 0.00 | 0.00 | 0.00 | 46 | 996.8 |
| 20260508232508 | 67 | 223 | 1.7 | 4.3 | 0.00 | 0.00 | 0.00 | 46 | 996.8 |
| 20260508232020 | 68 | 197 | 1.7 | 5.2 | 0.00 | 0.00 | 0.00 | 46 | 996.8 |
| 20260508231521 | 68 | 234 | 2.6 | 5.2 | 0.00 | 0.00 | 0.00 | 44 | 996.8 |
| 20260508231508 | 68 | 218 | 2.6 | 5.2 | 0.00 | 0.00 | 0.00 | 46 | 996.8 |
| 20260508231007 | 68 | 234 | 2.6 | 5.2 | 0.00 | 0.00 | 0.00 | 45 | 996.8 |
| 20260508230521 | 68 | 245 | 2.6 | 5.2 | 0.00 | 0.00 | 0.00 | 45 | 996.7 |
| 20260508230508 | 68 | 213 | 2.6 | 5.2 | 0.00 | 0.00 | 0.00 | 45 | 996.7 |
| 20260508230021 | 68 | 223 | 2.6 | 5.2 | 0.00 | 0.00 | 0.00 | 45 | 996.8 |
| 20260508230008 | 68 | 209 | 2.6 | 5.2 | 0.00 | 0.00 | 0.00 | 45 | 996.8 |
| 20260508225507 | 68 | 223 | 1.7 | 3.5 | 0.00 | 0.00 | 0.00 | 46 | 996.6 |
| 20260508225021 | 68 | 238 | 1.7 | 4.3 | 0.00 | 0.00 | 0.00 | 45 | 996.6 |
| 20260508225008 | 68 | 227 | 1.7 | 4.3 | 0.00 | 0.00 | 0.00 | 45 | 996.6 |
| 20260508224521 | 68 | 201 | 1.7 | 4.3 | 0.00 | 0.00 | 0.00 | 45 | 996.7 |
| 20260508224508 | 68 | 195 | 1.7 | 4.3 | 0.00 | 0.00 | 0.00 | 45 | 996.7 |
| 20260508224008 | 68 | 199 | 1.7 | 6.1 | 0.00 | 0.00 | 0.00 | 47 | 996.7 |
| 20260508223508 | 69 | 215 | 2.6 | 3.5 | 0.00 | 0.00 | 0.00 | 44 | 996.6 |
| 20260508223021 | 69 | 234 | 1.7 | 3.5 | 0.00 | 0.00 | 0.00 | 45 | 996.6 |
| 20260508223008 | 69 | 223 | 1.7 | 3.5 | 0.00 | 0.00 | 0.00 | 45 | 996.6 |
| 20260508222519 | 69 | 223 | 2.6 | 5.2 | 0.00 | 0.00 | 0.00 | 46 | 996.6 |
| 20260508222021 | 69 | 223 | 2.6 | 5.2 | 0.00 | 0.00 | 0.00 | 43 | 996.6 |
| 20260508222009 | 69 | 206 | 2.6 | 5.2 | 0.00 | 0.00 | 0.00 | 43 | 996.6 |
| 20260508221532 | 69 | 234 | 2.6 | 4.3 | 0.00 | 0.00 | 0.00 | 45 | 996.5 |
| 20260508221509 | 69 | 206 | 2.6 | 4.3 | 0.00 | 0.00 | 0.00 | 45 | 996.5 |
| 20260508221009 | 69 | 213 | 1.7 | 6.1 | 0.00 | 0.00 | 0.00 | 43 | 996.6 |
| 20260508220532 | 69 | 197 | 3.5 | 6.1 | 0.00 | 0.00 | 0.00 | 45 | 996.4 |
| 20260508220508 | 69 | 228 | 3.5 | 6.1 | 0.00 | 0.00 | 0.00 | 44 | 996.4 |
| 20260508220021 | 69 | 223 | 2.6 | 7.0 | 0.00 | 0.00 | 0.00 | 43 | 996.4 |
| 20260508220008 | 69 | 232 | 2.6 | 7.0 | 0.00 | 0.00 | 0.00 | 43 | 996.4 |
| 20260508215508 | 69 | 229 | 2.6 | 7.0 | 0.00 | 0.00 | 0.00 | 43 | 996.5 |
| 20260508215018 | 69 | 232 | 3.5 | 7.8 | 0.00 | 0.00 | 0.00 | 42 | 996.6 |
| 20260508214508 | 70 | 194 | 3.5 | 7.8 | 0.00 | 0.00 | 0.00 | 41 | 996.6 |
| 20260508214007 | 70 | 360 | 3.5 | 5.2 | 0.00 | 0.00 | 0.00 | 41 | 996.6 |
| 20260508213519 | 70 | 219 | 1.7 | 7.8 | 0.00 | 0.00 | 0.00 | 41 | 996.6 |
| 20260508213021 | 70 | 206 | 2.6 | 7.8 | 0.00 | 0.00 | 0.00 | 43 | 996.7 |
| 20260508213012 | 70 | 223 | 2.6 | 7.8 | 0.00 | 0.00 | 0.00 | 42 | 996.7 |
| 20260508212508 | 70 | 223 | 2.6 | 6.1 | 0.00 | 0.00 | 0.00 | 44 | 996.7 |
| 20260508212019 | 70 | 218 | 2.6 | 6.1 | 0.00 | 0.00 | 0.00 | 42 | 996.7 |
| 20260508211521 | 70 | 198 | 4.3 | 6.1 | 0.00 | 0.00 | 0.00 | 42 | 996.7 |
| 20260508211508 | 70 | 206 | 3.5 | 6.1 | 0.00 | 0.00 | 0.00 | 42 | 996.7 |
| 20260508211007 | 70 | 216 | 2.6 | 7.0 | 0.00 | 0.00 | 0.00 | 43 | 996.8 |
| 20260508210521 | 70 | 165 | 4.3 | 7.0 | 0.00 | 0.00 | 0.00 | 44 | 996.9 |
| 20260508210508 | 70 | 210 | 4.3 | 7.0 | 0.00 | 0.00 | 0.00 | 44 | 996.9 |
| 20260508210021 | 70 | 168 | 3.5 | 7.0 | 0.00 | 0.00 | 0.00 | 43 | 997.0 |
| 20260508210013 | 70 | 165 | 3.5 | 7.0 | 0.00 | 0.00 | 0.00 | 42 | 997.0 |
| 20260508205509 | 71 | 221 | 2.6 | 6.1 | 0.00 | 0.00 | 0.00 | 41 | 997.1 |
| 20260508205007 | 71 | 178 | 2.6 | 7.0 | 0.00 | 0.00 | 0.00 | 43 | 997.1 |
| 20260508204521 | 71 | 178 | 2.6 | 7.0 | 0.00 | 0.00 | 0.00 | 41 | 997.2 |
| 20260508204507 | 71 | 178 | 2.6 | 7.0 | 0.00 | 0.00 | 0.00 | 41 | 997.2 |
| 20260508204008 | 71 | 220 | 1.7 | 6.1 | 0.00 | 0.00 | 0.00 | 41 | 997.2 |
| 20260508203519 | 71 | 258 | 1.7 | 6.1 | 0.00 | 0.00 | 0.00 | 44 | 997.4 |
| 20260508203021 | 70 | 135 | 1.7 | 7.0 | 0.00 | 0.00 | 0.00 | 42 | 997.6 |
| 20260508203008 | 71 | 293 | 1.7 | 7.0 | 0.00 | 0.00 | 0.00 | 42 | 997.6 |
| 20260508202508 | 71 | 189 | 3.5 | 7.0 | 0.00 | 0.00 | 0.00 | 41 | 997.6 |
| 20260508202020 | 70 | 231 | 1.7 | 3.5 | 0.00 | 0.00 | 0.00 | 43 | 997.6 |
| 20260508201521 | 70 | 234 | 1.7 | 3.5 | 0.00 | 0.00 | 0.00 | 43 | 997.7 |
| 20260508201508 | 70 | 217 | 1.7 | 3.5 | 0.00 | 0.00 | 0.00 | 43 | 997.7 |
| 20260508201008 | 70 | 269 | 2.6 | 4.3 | 0.00 | 0.00 | 0.00 | 43 | 997.8 |
| 20260508200543 | 70 | 237 | 1.7 | 5.2 | 0.00 | 0.00 | 0.00 | 43 | 997.9 |
| 20260508200508 | 70 | 178 | 1.7 | 5.2 | 0.00 | 0.00 | 0.00 | 43 | 997.9 |
| 20260508200021 | 70 | 227 | 2.6 | 6.1 | 0.00 | 0.00 | 0.00 | 39 | 998.0 |
| 20260508200009 | 70 | 200 | 1.7 | 6.1 | 0.00 | 0.00 | 0.00 | 39 | 998.0 |
| 20260508195508 | 71 | 238 | 3.5 | 7.0 | 0.00 | 0.00 | 0.00 | 39 | 998.1 |
| 20260508195013 | 71 | 227 | 3.5 | 7.0 | 0.00 | 0.00 | 0.00 | 39 | 998.0 |
| 20260508194521 | 71 | 209 | 2.6 | 6.1 | 0.00 | 0.00 | 0.00 | 41 | 998.1 |
| 20260508194508 | 71 | 173 | 2.6 | 6.1 | 0.00 | 0.00 | 0.00 | 41 | 998.1 |
| 20260508194008 | 71 | 223 | 1.7 | 5.2 | 0.00 | 0.00 | 0.00 | 41 | 998.1 |
| 20260508193521 | 71 | 246 | 1.7 | 5.2 | 0.00 | 0.00 | 0.00 | 44 | 998.1 |
| 20260508193507 | 71 | 240 | 1.7 | 5.2 | 0.00 | 0.00 | 0.00 | 44 | 998.1 |
| 20260508193021 | 71 | 220 | 1.7 | 6.1 | 0.00 | 0.00 | 0.00 | 42 | 998.1 |
| 20260508193008 | 71 | 187 | 1.7 | 6.1 | 0.00 | 0.00 | 0.00 | 42 | 998.1 |
| 20260508192519 | 71 | 208 | 2.6 | 7.0 | 0.00 | 0.00 | 0.00 | 40 | 998.2 |
| 20260508192008 | 71 | 208 | 3.5 | 7.0 | 0.00 | 0.00 | 0.00 | 43 | 998.2 |
| 20260508191508 | 71 | 18 | 1.7 | 7.0 | 0.00 | 0.00 | 0.00 | 40 | 998.3 |
| 20260508191008 | 71 | 154 | 2.6 | 6.1 | 0.00 | 0.00 | 0.00 | 41 | 998.4 |
| 20260508190509 | 72 | 207 | 3.5 | 7.0 | 0.00 | 0.00 | 0.00 | 37 | 998.4 |
| 20260508190021 | 72 | 209 | 2.6 | 7.0 | 0.00 | 0.00 | 0.00 | 39 | 998.5 |
| 20260508190007 | 72 | 190 | 2.6 | 7.0 | 0.00 | 0.00 | 0.00 | 39 | 998.5 |
| 20260508185508 | 72 | 264 | 3.5 | 7.0 | 0.00 | 0.00 | 0.00 | 39 | 998.5 |
| 20260508185008 | 72 | 213 | 1.7 | 9.6 | 0.00 | 0.00 | 0.00 | 41 | 998.6 |
| 20260508184521 | 72 | 221 | 2.6 | 9.6 | 0.00 | 0.00 | 0.00 | 38 | 998.6 |
| 20260508184507 | 72 | 216 | 2.6 | 9.6 | 0.00 | 0.00 | 0.00 | 37 | 998.6 |
| 20260508184009 | 72 | 291 | 2.6 | 6.1 | 0.00 | 0.00 | 0.00 | 38 | 998.7 |
| 20260508183521 | 72 | 310 | 1.7 | 7.8 | 0.00 | 0.00 | 0.00 | 41 | 998.9 |
| 20260508183508 | 72 | 206 | 2.6 | 7.8 | 0.00 | 0.00 | 0.00 | 41 | 998.9 |
| 20260508183021 | 72 | 219 | 3.5 | 7.8 | 0.00 | 0.00 | 0.00 | 38 | 998.9 |
| 20260508183006 | 72 | 220 | 3.5 | 7.8 | 0.00 | 0.00 | 0.00 | 38 | 998.9 |
| 20260508182508 | 72 | 243 | 3.5 | 6.1 | 0.00 | 0.00 | 0.00 | 41 | 999.0 |
| 20260508182008 | 72 | 211 | 2.6 | 5.2 | 0.00 | 0.00 | 0.00 | 44 | 999.2 |
| 20260508181521 | 73 | 218 | 2.6 | 7.0 | 0.00 | 0.00 | 0.00 | 40 | 999.2 |
| 20260508181507 | 73 | 231 | 2.6 | 7.0 | 0.00 | 0.00 | 0.00 | 40 | 999.2 |
| 20260508181019 | 72 | 327 | 1.7 | 7.0 | 0.00 | 0.00 | 0.00 | 41 | 999.3 |
| 20260508180522 | 72 | 187 | 2.6 | 6.1 | 0.00 | 0.00 | 0.00 | 40 | 999.3 |
| 20260508180508 | 72 | 214 | 2.6 | 6.1 | 0.00 | 0.00 | 0.00 | 42 | 999.3 |
| 20260508180021 | 72 | 135 | 2.6 | 6.1 | 0.00 | 0.00 | 0.00 | 42 | 999.3 |
| 20260508180009 | 72 | 331 | 2.6 | 6.1 | 0.00 | 0.00 | 0.00 | 42 | 999.3 |
| 20260508175519 | 72 | 178 | 1.7 | 4.3 | 0.00 | 0.00 | 0.00 | 40 | 999.5 |
| 20260508175008 | 72 | 269 | 2.6 | 7.0 | 0.00 | 0.00 | 0.00 | 39 | 999.4 |
| 20260508174521 | 72 | 8 | 2.6 | 7.0 | 0.00 | 0.00 | 0.00 | 40 | 999.5 |
| 20260508174508 | 72 | 302 | 2.6 | 7.0 | 0.00 | 0.00 | 0.00 | 40 | 999.5 |
| 20260508174022 | 72 | 223 | 2.6 | 6.1 | 0.00 | 0.00 | 0.00 | 37 | 999.7 |
| 20260508173509 | 72 | 196 | 2.6 | 6.1 | 0.00 | 0.00 | 0.00 | 43 | 999.8 |
| 20260508173021 | 72 | 221 | 2.6 | 8.7 | 0.00 | 0.00 | 0.00 | 40 | 999.7 |
| 20260508173008 | 72 | 245 | 2.6 | 8.7 | 0.00 | 0.00 | 0.00 | 43 | 999.7 |
| 20260508172507 | 72 | 223 | 3.5 | 7.8 | 0.00 | 0.00 | 0.00 | 37 | 999.9 |
| 20260508172030 | 71 | 208 | 3.5 | 7.8 | 0.00 | 0.00 | 0.00 | 39 | 1000.0 |
| 20260508171521 | 71 | 229 | 2.6 | 7.8 | 0.00 | 0.00 | 0.00 | 40 | 1000.3 |
| 20260508171508 | 71 | 203 | 2.6 | 7.8 | 0.00 | 0.00 | 0.00 | 40 | 1000.3 |
| 20260508171007 | 71 | 187 | 2.6 | 8.7 | 0.00 | 0.00 | 0.00 | 43 | 1000.3 |
| 20260508170521 | 71 | 248 | 4.3 | 8.7 | 0.00 | 0.00 | 0.00 | 41 | 1000.5 |
| 20260508170509 | 71 | 250 | 4.3 | 8.7 | 0.00 | 0.00 | 0.00 | 41 | 1000.5 |
| 20260508170026 | 71 | 206 | 2.6 | 6.1 | 0.00 | 0.00 | 0.00 | 42 | 1000.6 |
| 20260508170023 | 72 | 178 | 2.6 | 6.1 | 0.00 | 0.00 | 0.00 | 41 | 1000.6 |
| 20260508165509 | 72 | 194 | 2.6 | 5.2 | 0.00 | 0.00 | 0.00 | 43 | 1000.7 |
| 20260508165008 | 72 | 259 | 1.7 | 5.2 | 0.00 | 0.00 | 0.00 | 45 | 1000.8 |
| 20260508164521 | 72 | 286 | 1.7 | 5.2 | 0.00 | 0.00 | 0.00 | 43 | 1000.8 |
| 20260508164508 | 72 | 206 | 1.7 | 5.2 | 0.00 | 0.00 | 0.00 | 43 | 1000.8 |
| 20260508164019 | 71 | 204 | 1.7 | 5.2 | 0.00 | 0.00 | 0.00 | 46 | 1001.0 |
| 20260508163521 | 71 | 213 | 2.6 | 5.2 | 0.00 | 0.00 | 0.00 | 44 | 1001.1 |
| 20260508163508 | 71 | 250 | 3.5 | 5.2 | 0.00 | 0.00 | 0.00 | 44 | 1001.1 |
| 20260508163021 | 71 | 276 | 2.6 | 5.2 | 0.00 | 0.00 | 0.00 | 47 | 1001.1 |
| 20260508163008 | 71 | 223 | 2.6 | 5.2 | 0.00 | 0.00 | 0.00 | 47 | 1001.1 |
| 20260508162523 | 70 | 269 | 1.7 | 7.0 | 0.00 | 0.00 | 0.00 | 45 | 1001.2 |
| 20260508162008 | 70 | 319 | 3.5 | 7.0 | 0.00 | 0.00 | 0.00 | 44 | 1001.2 |
| 20260508161521 | 70 | 229 | 2.6 | 6.1 | 0.00 | 0.00 | 0.00 | 47 | 1001.4 |
| 20260508161509 | 70 | 203 | 2.6 | 6.1 | 0.00 | 0.00 | 0.00 | 47 | 1001.4 |
| 20260508161032 | 70 | 222 | 2.6 | 6.1 | 0.00 | 0.00 | 0.00 | 47 | 1001.3 |
| 20260508161008 | 70 | 220 | 2.6 | 6.1 | 0.00 | 0.00 | 0.00 | 47 | 1001.3 |
| 20260508160521 | 70 | 295 | 1.7 | 5.2 | 0.00 | 0.00 | 0.00 | 47 | 1001.3 |
| 20260508160509 | 70 | 284 | 1.7 | 5.2 | 0.00 | 0.00 | 0.00 | 47 | 1001.3 |
| 20260508160034 | 70 | 206 | 2.6 | 5.2 | 0.00 | 0.00 | 0.00 | 45 | 1001.5 |
| 20260508155521 | 70 | 161 | 1.7 | 6.1 | 0.00 | 0.00 | 0.00 | 49 | 1001.6 |
| 20260508155509 | 70 | 269 | 1.7 | 6.1 | 0.00 | 0.00 | 0.00 | 49 | 1001.6 |
| 20260508155007 | 69 | 221 | 2.6 | 6.1 | 0.00 | 0.00 | 0.00 | 45 | 1001.6 |
| 20260508154521 | 69 | 158 | 1.7 | 5.2 | 0.00 | 0.00 | 0.00 | 51 | 1001.6 |
| 20260508154507 | 69 | 210 | 1.7 | 5.2 | 0.00 | 0.00 | 0.00 | 51 | 1001.6 |
| 20260508154007 | 69 | 178 | 2.6 | 5.2 | 0.00 | 0.00 | 0.00 | 50 | 1001.8 |
| 20260508153523 | 68 | 277 | 2.6 | 5.2 | 0.00 | 0.00 | 0.00 | 48 | 1001.8 |
| 20260508153021 | 68 | 295 | 2.6 | 5.2 | 0.00 | 0.00 | 0.00 | 48 | 1001.9 |
| 20260508153009 | 68 | 135 | 2.6 | 5.2 | 0.00 | 0.00 | 0.00 | 48 | 1001.9 |
| 20260508152519 | 68 | 135 | 2.6 | 5.2 | 0.00 | 0.00 | 0.00 | 49 | 1001.9 |
| 20260508152007 | 67 | 226 | 1.7 | 4.3 | 0.00 | 0.00 | 0.00 | 52 | 1002.0 |
| 20260508151521 | 67 | 168 | 1.7 | 5.2 | 0.00 | 0.00 | 0.00 | 49 | 1002.1 |
| 20260508151508 | 67 | 314 | 1.7 | 5.2 | 0.00 | 0.00 | 0.00 | 50 | 1002.1 |
| 20260508151019 | 66 | 227 | 2.6 | 5.2 | 0.00 | 0.00 | 0.00 | 50 | 1002.2 |
| 20260508150508 | 66 | 20 | 2.6 | 5.2 | 0.00 | 0.00 | 0.00 | 52 | 1002.2 |
| 20260508150029 | 65 | 269 | 2.6 | 5.2 | 0.00 | 0.00 | 0.00 | 52 | 1002.3 |
| 20260508145520 | 65 | 213 | 2.6 | 5.2 | 0.00 | 0.00 | 0.00 | 52 | 1002.2 |
| 20260508145007 | 64 | 190 | 1.7 | 4.3 | 0.00 | 0.00 | 0.00 | 54 | 1002.1 |
| 20260508144521 | 64 | 260 | 2.6 | 4.3 | 0.00 | 0.00 | 0.00 | 56 | 1002.2 |
| 20260508144508 | 64 | 315 | 2.6 | 4.3 | 0.00 | 0.00 | 0.00 | 52 | 1002.2 |
| 20260508144008 | 63 | 269 | 1.7 | 5.2 | 0.00 | 0.00 | 0.00 | 54 | 1002.2 |
| 20260508143508 | 63 | 210 | 1.7 | 5.2 | 0.00 | 0.00 | 0.00 | 54 | 1002.2 |
| 20260508143021 | 62 | 168 | 1.7 | 6.1 | 0.00 | 0.00 | 0.00 | 55 | 1002.2 |
| 20260508143008 | 62 | 223 | 1.7 | 6.1 | 0.00 | 0.00 | 0.00 | 55 | 1002.2 |
| 20260508142508 | 62 | 215 | 2.6 | 6.1 | 0.00 | 0.00 | 0.00 | 53 | 1002.3 |
| 20260508142008 | 62 | 290 | 1.7 | 4.3 | 0.00 | 0.00 | 0.00 | 57 | 1002.4 |
| 20260508141532 | 61 | 295 | 1.7 | 3.5 | 0.00 | 0.00 | 0.00 | 57 | 1002.3 |
| 20260508141508 | 61 | 197 | 1.7 | 3.5 | 0.00 | 0.00 | 0.00 | 57 | 1002.3 |
| 20260508141008 | 61 | 172 | 1.7 | 4.3 | 0.00 | 0.00 | 0.00 | 57 | 1002.3 |
| 20260508140509 | 60 | 229 | 1.7 | 4.3 | 0.00 | 0.00 | 0.00 | 57 | 1002.4 |
| 20260508140022 | 60 | 245 | 1.7 | 4.3 | 0.00 | 0.00 | 0.00 | 58 | 1002.4 |
| 20260508140007 | 60 | 206 | 1.7 | 4.3 | 0.00 | 0.00 | 0.00 | 58 | 1002.4 |
| 20260508135521 | 59 | 206 | 1.7 | 3.5 | 0.00 | 0.00 | 0.00 | 58 | 1002.5 |
| 20260508135508 | 59 | 223 | 1.7 | 3.5 | 0.00 | 0.00 | 0.00 | 58 | 1002.5 |
| 20260508135022 | 59 | 187 | 1.7 | 3.5 | 0.00 | 0.00 | 0.00 | 58 | 1002.5 |
| 20260508134521 | 58 | 227 | 1.7 | 3.5 | 0.00 | 0.00 | 0.00 | 57 | 1002.5 |
| 20260508134507 | 58 | 178 | 1.7 | 3.5 | 0.00 | 0.00 | 0.00 | 57 | 1002.5 |
| 20260508134008 | 58 | 250 | 1.7 | 4.3 | 0.00 | 0.00 | 0.00 | 59 | 1002.6 |
| 20260508133523 | 57 | 240 | 1.7 | 4.3 | 0.00 | 0.00 | 0.00 | 62 | 1002.5 |
| 20260508133508 | 57 | 269 | 1.7 | 4.3 | 0.00 | 0.00 | 0.00 | 61 | 1002.5 |
| 20260508133021 | 56 | 217 | 1.7 | 3.5 | 0.00 | 0.00 | 0.00 | 62 | 1002.5 |
| 20260508133009 | 56 | 269 | 1.7 | 3.5 | 0.00 | 0.00 | 0.00 | 62 | 1002.5 |
| 20260508132508 | 56 | 209 | 0.9 | 3.5 | 0.00 | 0.00 | 0.00 | 63 | 1002.5 |
| 20260508132021 | 55 | 223 | 1.7 | 3.5 | 0.00 | 0.00 | 0.00 | 62 | 1002.6 |
| 20260508132008 | 55 | 269 | 1.7 | 3.5 | 0.00 | 0.00 | 0.00 | 62 | 1002.6 |
| 20260508131521 | 55 | 232 | 1.7 | 4.3 | 0.00 | 0.00 | 0.00 | 64 | 1002.5 |
| 20260508131507 | 55 | 178 | 1.7 | 4.3 | 0.00 | 0.00 | 0.00 | 64 | 1002.5 |
| 20260508131007 | 54 | 172 | 1.7 | 4.3 | 0.00 | 0.00 | 0.00 | 63 | 1002.5 |
| 20260508130508 | 54 | 276 | 1.7 | 4.3 | 0.00 | 0.00 | 0.00 | 64 | 1002.5 |
| 20260508130021 | 53 | 223 | 1.7 | 4.3 | 0.00 | 0.00 | 0.00 | 64 | 1002.4 |
| 20260508130008 | 53 | 227 | 0.9 | 4.3 | 0.00 | 0.00 | 0.00 | 65 | 1002.4 |
| 20260508125508 | 53 | 197 | 1.7 | 4.3 | 0.00 | 0.00 | 0.00 | 63 | 1002.5 |
| 20260508125007 | 52 | 219 | 1.7 | 6.1 | 0.00 | 0.00 | 0.00 | 64 | 1002.5 |
| 20260508124521 | 52 | 199 | 2.6 | 6.1 | 0.00 | 0.00 | 0.00 | 64 | 1002.5 |
| 20260508124508 | 52 | 240 | 1.7 | 6.1 | 0.00 | 0.00 | 0.00 | 64 | 1002.5 |
| 20260508124021 | 51 | 234 | 1.7 | 3.5 | 0.00 | 0.00 | 0.00 | 67 | 1002.4 |
| 20260508124008 | 51 | 215 | 1.7 | 3.5 | 0.00 | 0.00 | 0.00 | 67 | 1002.4 |
| 20260508123521 | 51 | 210 | 1.7 | 3.5 | 0.00 | 0.00 | 0.00 | 66 | 1002.4 |
| 20260508123021 | 50 | 250 | 1.7 | 4.3 | 0.00 | 0.00 | 0.00 | 68 | 1002.3 |
| 20260508123013 | 50 | 201 | 1.7 | 4.3 | 0.00 | 0.00 | 0.00 | 68 | 1002.3 |
| 20260508122508 | 50 | 195 | 2.6 | 4.3 | 0.00 | 0.00 | 0.00 | 68 | 1002.3 |
| 20260508122008 | 49 | 216 | 1.7 | 4.3 | 0.00 | 0.00 | 0.00 | 69 | 1002.3 |
| 20260508121522 | 48 | 206 | 2.6 | 5.2 | 0.00 | 0.00 | 0.00 | 70 | 1002.3 |
| 20260508121509 | 48 | 209 | 1.7 | 5.2 | 0.00 | 0.00 | 0.00 | 70 | 1002.3 |
| 20260508121008 | 48 | 221 | 2.6 | 5.2 | 0.00 | 0.00 | 0.00 | 70 | 1002.3 |
| 20260508120519 | 47 | 215 | 2.6 | 3.5 | 0.00 | 0.00 | 0.00 | 71 | 1002.2 |
| 20260508120021 | 47 | 169 | 1.7 | 2.6 | 0.00 | 0.00 | 0.00 | 73 | 1002.2 |
| 20260508120009 | 47 | 201 | 1.7 | 2.6 | 0.00 | 0.00 | 0.00 | 73 | 1002.2 |
| 20260508115521 | 46 | 167 | 1.7 | 2.6 | 0.00 | 0.00 | 0.00 | 74 | 1002.2 |
| 20260508115509 | 46 | 190 | 1.7 | 2.6 | 0.00 | 0.00 | 0.00 | 73 | 1002.2 |
| 20260508115006 | 46 | 257 | 1.7 | 3.5 | 0.00 | 0.00 | 0.00 | 73 | 1002.2 |
| 20260508114521 | 46 | 240 | 1.7 | 3.5 | 0.00 | 0.00 | 0.00 | 74 | 1002.1 |
| 20260508114508 | 46 | 227 | 1.7 | 3.5 | 0.00 | 0.00 | 0.00 | 74 | 1002.1 |
| 20260508114019 | 46 | 218 | 2.6 | 3.5 | 0.00 | 0.00 | 0.00 | 74 | 1002.1 |
| 20260508113507 | 45 | 223 | 1.7 | 3.5 | 0.00 | 0.00 | 0.00 | 74 | 1002.0 |
| 20260508113054 | 45 | 227 | 1.7 | 2.6 | 0.00 | 0.00 | 0.00 | 75 | 1002.0 |
| 20260508113008 | 45 | 210 | 1.7 | 2.6 | 0.00 | 0.00 | 0.00 | 75 | 1002.0 |
| 20260508112508 | 44 | 223 | 1.7 | 2.6 | 0.00 | 0.00 | 0.00 | 77 | 1002.0 |
| 20260508112021 | 44 | 231 | 1.7 | 3.5 | 0.00 | 0.00 | 0.00 | 76 | 1001.9 |
| 20260508112008 | 44 | 201 | 1.7 | 3.5 | 0.00 | 0.00 | 0.00 | 76 | 1001.9 |
| 20260508111532 | 44 | 213 | 1.7 | 3.5 | 0.00 | 0.00 | 0.00 | 76 | 1001.9 |
| 20260508111509 | 44 | 238 | 1.7 | 3.5 | 0.00 | 0.00 | 0.00 | 77 | 1001.9 |
| 20260508111008 | 44 | 240 | 1.7 | 2.6 | 0.00 | 0.00 | 0.00 | 77 | 1001.8 |
| 20260508110508 | 44 | 223 | 0.9 | 2.6 | 0.00 | 0.00 | 0.00 | 78 | 1001.8 |
| 20260508110021 | 44 | 232 | 1.7 | 2.6 | 0.00 | 0.00 | 0.00 | 77 | 1001.7 |
| 20260508110009 | 44 | 234 | 1.7 | 2.6 | 0.00 | 0.00 | 0.00 | 77 | 1001.7 |
| 20260508105508 | 44 | 228 | 0.9 | 2.6 | 0.00 | 0.00 | 0.00 | 78 | 1001.7 |
| 20260508105021 | 44 | 213 | 0.9 | 1.7 | 0.00 | 0.00 | 0.00 | 78 | 1001.7 |
| 20260508105008 | 44 | 218 | 0.9 | 1.7 | 0.00 | 0.00 | 0.00 | 78 | 1001.7 |
| 20260508104521 | 44 | 223 | 0.9 | 1.7 | 0.00 | 0.00 | 0.00 | 77 | 1001.6 |
| 20260508104508 | 44 | 206 | 0.9 | 1.7 | 0.00 | 0.00 | 0.00 | 77 | 1001.6 |
| 20260508104008 | 44 | 253 | 0.9 | 1.7 | 0.00 | 0.00 | 0.00 | 77 | 1001.7 |
| 20260508103508 | 44 | 223 | 0.9 | 2.6 | 0.00 | 0.00 | 0.00 | 77 | 1001.7 |
| 20260508103010 | 43 | 197 | 0.9 | 2.6 | 0.00 | 0.00 | 0.00 | 78 | 1001.6 |
| 20260508102508 | 43 | 229 | 0.9 | 1.7 | 0.00 | 0.00 | 0.00 | 79 | 1001.7 |
| 20260508102021 | 43 | 223 | 0.9 | 1.7 | 0.00 | 0.00 | 0.00 | 79 | 1001.6 |
| 20260508102008 | 43 | 219 | 0.9 | 1.7 | 0.00 | 0.00 | 0.00 | 79 | 1001.6 |
| 20260508101523 | 43 | 229 | 0.9 | 1.7 | 0.00 | 0.00 | 0.00 | 80 | 1001.7 |
| 20260508101519 | 43 | 234 | 0.9 | 1.7 | 0.00 | 0.00 | 0.00 | 80 | 1001.7 |
| 20260508101007 | 43 | 234 | 0.9 | 1.7 | 0.00 | 0.00 | 0.00 | 81 | 1001.8 |
| 20260508100507 | 43 | 213 | 0.9 | 0.9 | 0.00 | 0.00 | 0.00 | 79 | 1001.8 |
| 20260508100030 | 43 | 223 | 0.9 | 1.7 | 0.00 | 0.00 | 0.00 | 80 | 1001.7 |
| 20260508095507 | 43 | 245 | 0.9 | 1.7 | 0.00 | 0.00 | 0.00 | 80 | 1001.7 |
| 20260508095020 | 43 | 206 | 0.9 | 1.7 | 0.00 | 0.00 | 0.00 | 81 | 1001.7 |
| 20260508094520 | 43 | 223 | 0.9 | 1.7 | 0.00 | 0.00 | 0.00 | 80 | 1001.8 |
| 20260508094032 | 43 | 223 | 0.9 | 1.7 | 0.00 | 0.00 | 0.00 | 81 | 1001.7 |
| 20260508094008 | 43 | 218 | 0.9 | 1.7 | 0.00 | 0.00 | 0.00 | 81 | 1001.7 |
| 20260508093530 | 43 | 234 | 0.9 | 1.7 | 0.00 | 0.00 | 0.00 | 81 | 1001.7 |
| 20260508093021 | 43 | 213 | 0.9 | 1.7 | 0.00 | 0.00 | 0.00 | 80 | 1001.7 |
| 20260508093008 | 43 | 240 | 0.9 | 1.7 | 0.00 | 0.00 | 0.00 | 80 | 1001.7 |
| 20260508092519 | 43 | 234 | 0.9 | 1.7 | 0.00 | 0.00 | 0.00 | 80 | 1001.6 |
| 20260508092011 | 43 | 206 | 0.9 | 1.7 | 0.00 | 0.00 | 0.00 | 80 | 1001.6 |
| 20260508091521 | 43 | 269 | 0.0 | 1.7 | 0.00 | 0.00 | 0.00 | 80 | 1001.6 |
| 20260508091508 | 43 | 1 | 0.0 | 1.7 | 0.00 | 0.00 | 0.00 | 80 | 1001.6 |
| 20260508091008 | 43 | 250 | 0.9 | 1.7 | 0.00 | 0.00 | 0.00 | 80 | 1001.6 |
| 20260508090521 | 43 | 234 | 0.9 | 1.7 | 0.00 | 0.00 | 0.00 | 80 | 1001.6 |
| 20260508090508 | 43 | 240 | 0.9 | 1.7 | 0.00 | 0.00 | 0.00 | 80 | 1001.6 |
| 20260508090032 | 43 | 302 | 0.0 | 1.7 | 0.00 | 0.00 | 0.00 | 80 | 1001.6 |
| 20260508090008 | 43 | 250 | 0.0 | 1.7 | 0.00 | 0.00 | 0.00 | 80 | 1001.6 |
| 20260508085508 | 43 | 213 | 0.9 | 1.7 | 0.00 | 0.00 | 0.00 | 80 | 1001.5 |
| 20260508085020 | 43 | 250 | 0.9 | 1.7 | 0.00 | 0.00 | 0.00 | 80 | 1001.5 |
| 20260508085008 | 43 | 269 | 0.9 | 1.7 | 0.00 | 0.00 | 0.00 | 80 | 1001.5 |
| 20260508084524 | 43 | 234 | 0.9 | 1.7 | 0.00 | 0.00 | 0.00 | 79 | 1001.5 |
| 20260508084521 | 43 | 269 | 0.9 | 1.7 | 0.00 | 0.00 | 0.00 | 79 | 1001.5 |
| 20260508084007 | 43 | 240 | 0.9 | 1.7 | 0.00 | 0.00 | 0.00 | 79 | 1001.5 |
| 20260508083520 | 44 | 223 | 0.9 | 1.7 | 0.00 | 0.00 | 0.00 | 79 | 1001.6 |
| 20260508083021 | 44 | 234 | 0.9 | 1.7 | 0.00 | 0.00 | 0.00 | 79 | 1001.5 |
| 20260508083009 | 44 | 240 | 0.9 | 1.7 | 0.00 | 0.00 | 0.00 | 79 | 1001.5 |
| 20260508082511 | 44 | 234 | 0.9 | 1.7 | 0.00 | 0.00 | 0.00 | 78 | 1001.5 |
| 20260508082008 | 44 | 213 | 0.9 | 1.7 | 0.00 | 0.00 | 0.00 | 78 | 1001.5 |
| 20260508081523 | 44 | 253 | 0.9 | 1.7 | 0.00 | 0.00 | 0.00 | 77 | 1001.5 |
| 20260508081519 | 44 | 240 | 0.9 | 1.7 | 0.00 | 0.00 | 0.00 | 77 | 1001.5 |
| 20260508081021 | 45 | 295 | 0.0 | 1.7 | 0.00 | 0.00 | 0.00 | 77 | 1001.5 |
| 20260508081007 | 44 | 269 | 0.0 | 1.7 | 0.00 | 0.00 | 0.00 | 77 | 1001.5 |
| 20260508080532 | 45 | 223 | 0.9 | 1.7 | 0.00 | 0.00 | 0.00 | 77 | 1001.5 |
| 20260508080507 | 45 | 269 | 0.9 | 1.7 | 0.00 | 0.00 | 0.00 | 77 | 1001.5 |
| 20260508080021 | 45 | 223 | 0.9 | 1.7 | 0.00 | 0.00 | 0.00 | 76 | 1001.5 |
| 20260508080008 | 45 | 234 | 0.9 | 1.7 | 0.00 | 0.00 | 0.00 | 76 | 1001.5 |
| 20260508075519 | 45 | 223 | 0.9 | 1.7 | 0.00 | 0.00 | 0.00 | 75 | 1001.5 |
| 20260508075019 | 45 | 269 | 0.0 | 0.9 | 0.00 | 0.00 | 0.00 | 75 | 1001.5 |
| 20260508074507 | 45 | 314 | 0.0 | 0.9 | 0.00 | 0.00 | 0.00 | 74 | 1001.5 |
| 20260508074011 | 45 | 269 | 0.0 | 0.9 | 0.00 | 0.00 | 0.00 | 74 | 1001.5 |
| 20260508073521 | 45 | 269 | 0.0 | 0.9 | 0.00 | 0.00 | 0.00 | 74 | 1001.4 |
| 20260508073508 | 45 | 314 | 0.0 | 0.9 | 0.00 | 0.00 | 0.00 | 74 | 1001.4 |
| 20260508073021 | 45 | 135 | 0.0 | 0.9 | 0.00 | 0.00 | 0.00 | 74 | 1001.3 |
| 20260508073007 | 45 | 178 | 0.0 | 0.9 | 0.00 | 0.00 | 0.00 | 74 | 1001.3 |
| 20260508072521 | 45 | 269 | 0.0 | 1.7 | 0.00 | 0.00 | 0.00 | 74 | 1001.3 |
| 20260508072508 | 45 | 223 | 0.0 | 1.7 | 0.00 | 0.00 | 0.00 | 74 | 1001.3 |
| 20260508072021 | 45 | 197 | 0.9 | 1.7 | 0.00 | 0.00 | 0.00 | 75 | 1001.4 |
| 20260508072008 | 45 | 206 | 0.9 | 1.7 | 0.00 | 0.00 | 0.00 | 74 | 1001.4 |
| 20260508071523 | 45 | 218 | 0.9 | 1.7 | 0.00 | 0.00 | 0.00 | 74 | 1001.5 |
| 20260508071519 | 45 | 216 | 0.9 | 1.7 | 0.00 | 0.00 | 0.00 | 74 | 1001.5 |
| 20260508071009 | 45 | 236 | 0.9 | 1.7 | 0.00 | 0.00 | 0.00 | 74 | 1001.5 |
| 20260508070508 | 46 | 223 | 0.9 | 1.7 | 0.00 | 0.00 | 0.00 | 74 | 1001.6 |
| 20260508070022 | 46 | 231 | 0.9 | 1.7 | 0.00 | 0.00 | 0.00 | 73 | 1001.7 |
| 20260508070008 | 46 | 223 | 0.9 | 1.7 | 0.00 | 0.00 | 0.00 | 73 | 1001.7 |
| 20260508065521 | 46 | 234 | 0.9 | 1.7 | 0.00 | 0.00 | 0.00 | 73 | 1001.7 |
| 20260508065508 | 46 | 223 | 0.9 | 1.7 | 0.00 | 0.00 | 0.00 | 73 | 1001.7 |
| 20260508065007 | 46 | 223 | 0.9 | 1.7 | 0.00 | 0.00 | 0.00 | 72 | 1001.9 |
| 20260508064519 | 46 | 269 | 0.0 | 0.9 | 0.00 | 0.00 | 0.00 | 72 | 1002.0 |
| 20260508064009 | 46 | 240 | 0.0 | 1.7 | 0.00 | 0.00 | 0.00 | 72 | 1002.0 |
| 20260508063521 | 46 | 223 | 0.9 | 1.7 | 0.00 | 0.00 | 0.00 | 72 | 1002.1 |
| 20260508063509 | 46 | 231 | 0.9 | 1.7 | 0.00 | 0.00 | 0.00 | 72 | 1002.1 |
| 20260508063020 | 46 | 206 | 0.9 | 1.7 | 0.00 | 0.00 | 0.00 | 72 | 1002.1 |
| 20260508063012 | 46 | 197 | 0.9 | 1.7 | 0.00 | 0.00 | 0.00 | 72 | 1002.1 |
| 20260508062508 | 47 | 193 | 0.9 | 1.7 | 0.00 | 0.00 | 0.00 | 71 | 1002.2 |
| 20260508062026 | 47 | 250 | 0.9 | 1.7 | 0.00 | 0.00 | 0.00 | 71 | 1002.2 |
| 20260508062008 | 47 | 213 | 0.9 | 1.7 | 0.00 | 0.00 | 0.00 | 71 | 1002.2 |
| 20260508061523 | 47 | 234 | 0.9 | 1.7 | 0.00 | 0.00 | 0.00 | 71 | 1002.2 |
| 20260508061519 | 47 | 240 | 0.9 | 1.7 | 0.00 | 0.00 | 0.00 | 71 | 1002.2 |
| 20260508061019 | 47 | 250 | 0.9 | 1.7 | 0.00 | 0.00 | 0.00 | 71 | 1002.3 |
| 20260508060521 | 47 | 250 | 0.9 | 1.7 | 0.00 | 0.00 | 0.00 | 71 | 1002.2 |
| 20260508060508 | 47 | 295 | 0.9 | 1.7 | 0.00 | 0.00 | 0.00 | 71 | 1002.2 |
| 20260508060021 | 47 | 223 | 0.9 | 2.6 | 0.00 | 0.00 | 0.00 | 71 | 1002.2 |
| 20260508060009 | 47 | 245 | 0.9 | 2.6 | 0.00 | 0.00 | 0.00 | 71 | 1002.2 |
| 20260508055510 | 47 | 234 | 1.7 | 2.6 | 0.00 | 0.00 | 0.00 | 70 | 1002.3 |
| 20260508055007 | 47 | 240 | 0.9 | 1.7 | 0.00 | 0.00 | 0.00 | 71 | 1002.3 |
| 20260508054521 | 47 | 269 | 0.9 | 1.7 | 0.00 | 0.00 | 0.00 | 70 | 1002.3 |
| 20260508054507 | 47 | 250 | 0.9 | 1.7 | 0.00 | 0.00 | 0.00 | 70 | 1002.3 |
| 20260508054009 | 47 | 223 | 0.9 | 1.7 | 0.00 | 0.00 | 0.00 | 70 | 1002.2 |
| 20260508053508 | 47 | 210 | 0.9 | 1.7 | 0.00 | 0.00 | 0.00 | 70 | 1002.2 |
| 20260508053023 | 47 | 253 | 0.9 | 1.7 | 0.00 | 0.00 | 0.00 | 70 | 1002.2 |
| 20260508053019 | 47 | 223 | 0.9 | 1.7 | 0.00 | 0.00 | 0.00 | 70 | 1002.2 |
| 20260508052509 | 47 | 201 | 0.9 | 1.7 | 0.00 | 0.00 | 0.00 | 69 | 1002.2 |
| 20260508052008 | 47 | 234 | 0.9 | 1.7 | 0.00 | 0.00 | 0.00 | 69 | 1002.2 |
| 20260508051529 | 47 | 269 | 0.9 | 1.7 | 0.00 | 0.00 | 0.00 | 69 | 1002.1 |
| 20260508051008 | 47 | 237 | 0.9 | 1.7 | 0.00 | 0.00 | 0.00 | 70 | 1002.1 |
| 20260508050521 | 47 | 250 | 0.9 | 2.6 | 0.00 | 0.00 | 0.00 | 71 | 1002.1 |
| 20260508050508 | 47 | 218 | 0.9 | 2.6 | 0.00 | 0.00 | 0.00 | 71 | 1002.1 |
| 20260508050021 | 47 | 240 | 0.9 | 2.6 | 0.00 | 0.00 | 0.00 | 71 | 1002.1 |
| 20260508050011 | 47 | 223 | 0.9 | 2.6 | 0.00 | 0.00 | 0.00 | 70 | 1002.1 |
| 20260508045507 | 47 | 229 | 0.9 | 1.7 | 0.00 | 0.00 | 0.00 | 69 | 1002.1 |
| 20260508045009 | 47 | 216 | 0.9 | 1.7 | 0.00 | 0.00 | 0.00 | 69 | 1002.1 |
| 20260508044522 | 47 | 223 | 0.9 | 1.7 | 0.00 | 0.00 | 0.00 | 69 | 1002.2 |
| 20260508044508 | 47 | 240 | 0.9 | 1.7 | 0.00 | 0.00 | 0.00 | 69 | 1002.2 |
| 20260508044019 | 47 | 216 | 0.9 | 1.7 | 0.00 | 0.00 | 0.00 | 69 | 1002.2 |
| 20260508043510 | 48 | 223 | 0.9 | 1.7 | 0.00 | 0.00 | 0.00 | 68 | 1002.2 |
| 20260508043008 | 48 | 216 | 0.9 | 1.7 | 0.00 | 0.00 | 0.00 | 68 | 1002.2 |
| 20260508042508 | 47 | 193 | 0.9 | 1.7 | 0.00 | 0.00 | 0.00 | 68 | 1002.1 |
| 20260508042008 | 47 | 234 | 0.9 | 2.6 | 0.00 | 0.00 | 0.00 | 69 | 1002.1 |
| 20260508041532 | 47 | 231 | 1.7 | 2.6 | 0.00 | 0.00 | 0.00 | 69 | 1002.1 |
| 20260508041508 | 47 | 223 | 1.7 | 2.6 | 0.00 | 0.00 | 0.00 | 69 | 1002.1 |
| 20260508041007 | 47 | 223 | 1.7 | 2.6 | 0.00 | 0.00 | 0.00 | 70 | 1002.0 |
| 20260508040533 | 47 | 223 | 1.7 | 2.6 | 0.00 | 0.00 | 0.00 | 73 | 1002.0 |
| 20260508040508 | 47 | 228 | 1.7 | 2.6 | 0.00 | 0.00 | 0.00 | 73 | 1002.0 |
| 20260508040023 | 47 | 216 | 1.7 | 2.6 | 0.00 | 0.00 | 0.00 | 72 | 1002.0 |
| 20260508040019 | 47 | 213 | 1.7 | 2.6 | 0.00 | 0.00 | 0.00 | 72 | 1002.0 |
| 20260508035507 | 47 | 245 | 0.9 | 2.6 | 0.00 | 0.00 | 0.00 | 72 | 1002.1 |
| 20260508035008 | 47 | 201 | 1.7 | 2.6 | 0.00 | 0.00 | 0.00 | 72 | 1002.1 |
| 20260508034508 | 47 | 223 | 0.9 | 1.7 | 0.00 | 0.00 | 0.00 | 73 | 1002.1 |
| 20260508034022 | 47 | 216 | 0.9 | 1.7 | 0.00 | 0.00 | 0.00 | 74 | 1002.1 |
| 20260508034008 | 47 | 223 | 0.9 | 1.7 | 0.00 | 0.00 | 0.00 | 74 | 1002.1 |
| 20260508033521 | 46 | 223 | 0.9 | 2.6 | 0.00 | 0.00 | 0.00 | 74 | 1002.2 |
| 20260508033507 | 46 | 210 | 0.9 | 2.6 | 0.00 | 0.00 | 0.00 | 74 | 1002.2 |
| 20260508033009 | 46 | 223 | 1.7 | 1.7 | 0.00 | 0.00 | 0.00 | 75 | 1002.2 |
| 20260508032508 | 46 | 223 | 1.7 | 1.7 | 0.00 | 0.00 | 0.00 | 76 | 1002.1 |
| 20260508032040 | 46 | 223 | 0.9 | 1.7 | 0.00 | 0.00 | 0.00 | 78 | 1002.1 |
| 20260508031531 | 46 | 237 | 1.7 | 2.6 | 0.00 | 0.00 | 0.00 | 78 | 1002.1 |
| 20260508031508 | 46 | 229 | 1.7 | 2.6 | 0.00 | 0.00 | 0.00 | 78 | 1002.1 |
| 20260508031021 | 46 | 229 | 1.7 | 2.6 | 0.00 | 0.00 | 0.00 | 78 | 1002.1 |
| 20260508031008 | 46 | 236 | 1.7 | 2.6 | 0.00 | 0.00 | 0.00 | 78 | 1002.1 |
| 20260508030507 | 47 | 223 | 0.9 | 1.7 | 0.00 | 0.00 | 0.00 | 77 | 1002.2 |
| 20260508030027 | 47 | 223 | 0.9 | 1.7 | 0.00 | 0.00 | 0.00 | 77 | 1002.2 |
| 20260508030024 | 47 | 218 | 0.9 | 1.7 | 0.00 | 0.00 | 0.00 | 77 | 1002.2 |
| 20260508025518 | 47 | 229 | 0.9 | 1.7 | 0.00 | 0.00 | 0.00 | 77 | 1002.2 |
| 20260508025009 | 47 | 206 | 0.9 | 1.7 | 0.00 | 0.00 | 0.00 | 77 | 1002.1 |